Volver al catálogo

FENGYUN 1C DEB

ActivoSSO
NORAD 37912·DEBRIS·🇨🇳 China

Lanzado May 10, 1999 desde Taiyuan Satellite Launch Center

Loading…

Próximos Pases (próximas 24 horas)

TLE

ActualizadoSource: Space-Track

Época: Sep 14, 2026, 10:03 UTC

1 37912U 99025ENM 26257.41880009  .00002560  00000-0  13337-2 0  9991
2 37912  99.2383 239.4635 0090923   9.5378 350.7493 14.13418948811807

Sigue FENGYUN 1C DEB en tiempo real con AllMySat

Download on the App Store